Regional Weather Roundup
Issued by NWS Goodland, KS

Home | Current Version | Previous Version | Text Only | Print | Product List | Glossary Off
Versions: 1 2 3 4 5 6 7 8 9 10 11 12 13 14 15 16 17 18 19 20 21 22 23 24 25 26 27 28 29 30 31 32 33 34 35 36 37 38 39 40 41 42 43 44 45 46 47 48 49 50

000
ASUS43 KGLD 040259
RWRGLD

GOODLAND FORECAST AREA HOURLY WEATHER ROUNDUP
NATIONAL WEATHER SERVICE GOODLAND KS
800 PM MST TUE MAR 03 2015

...OFFICIAL OBSERVATIONS...

CITY           SKY/WX    TMP DP  RH WIND       PRES   REMARKS
GOODLAND KS    FLURRIES  25  13  60 NE13      29.97R WCI  14
HILL CITY KS   CLOUDY    27  13  55 N10       30.04R WCI  17
IMPERIAL NEB     N/A     21   8  57 NE12      30.02R WCI   9
MCCOOK NEB     CLOUDY    26   5  40 N13       30.04R WCI  15
AKRON CO       CLOUDY    19  15  84 E9        29.92R
BURLINGTON CO  CLOUDY    26  14  60 E10       29.93S WCI  16
LIMON CO       NOT AVBL
$$

...UNOFFICIAL OBSERVATIONS...

CITY           SKY/WX    TMP DP  RH WIND       PRES   REMARKS
COLBY KS       CLOUDY    27  16  63 N14       30.00R WCI  15
GOVE KS          N/A     27  32 100 MISG        N/A
LENORA KS        N/A     25  32 100 S12         N/A  WCI  14
NORTON KS      CLOUDY    25   0  33 N10       30.03R WCI  15
SHARON SPRINGS   N/A     28  21  74 CALM        N/A
KIT CARSON CO    N/A     25  18  74 MISG        N/A
YUMA CO          N/A     21  13  72 NE12        N/A  WCI   9
$$



USA.gov is the U.S. government's official web portal to all federal, state and local government web resources and services.